Terminal Aerodrome Forecast
Issued by NWS

Home | Current Version | Previous Version | Text Only | Print | Product List | Glossary On
Versions: 1 2 3 4 5 6 7 8 9 10 11 12 13 14 15
000
FTUS45 KRIW 192300
TAFRKS
TAF
KRKS 192320Z 2000/2024 25011KT P6SM SCT050 BKN100
     FM200400 24007KT P6SM SCT045 OVC100
     FM201300 25013KT P6SM VCSH BKN040
     FM201900 26017G25KT P6SM SCT045 BKN090=

USA.gov is the U.S. government's official web portal to all federal, state and local government web resources and services.